Location: Utrecht
(52.0907°N, 5.1214°E)
Time: 19:36:09
(UTC+02:00)

SPROUT - Pass Details

Date: 08 July 2022
Orbit: 588 x 598 km, 97.9° (Epoch: 09 August)

Event Time Altitude Azimuth Distance (km) Brightness Sun altitude
Exits shadow 03:27:39 15° 233° (SW) 1,637 ? -12.1°
Maximum altitude 03:29:40 20° 269° (W) 1,391 ? -12.0°
Drops below altitude 10° 03:32:46 10° 317° (NW) 1,931 ? -11.8°
Sets 03:35:27 0° 334° (NNW) 2,840 ? -11.6°
